Lapse_Rate
4.7 4.6 4.9 5.0 5.2 5.1 5.2 5.3 5.2 4.9 5.1 5.3 5.5 5.5 5.4 5.5 5.5 5.4 5.6 5.7 5.9 5.9 6.3 6.6 6.5 6.6 6.2 6.3 6.6 6.1 6.3 6.4 6.5 6.7 6.5 6.4 6.3 6.7 6.6 6.2 6.5 6.6 6.9
4.1 4.7 5.0 5.0 5.0 5.0 5.2 5.1 4.8 4.8 4.9 5.0 5.3 5.5 5.7 5.9 6.0 6.0 5.9 6.0 6.1 6.3 6.4 6.6 6.6 6.6 6.4 6.2 6.4 6.4 6.2 6.5 6.8 6.9 6.7 6.7 6.5 6.7 6.5 5.9 6.0 6.5 6.4
4.3 4.7 4.7 4.7 5.0 5.2 5.0 4.7 4.7 4.9 5.1 5.2 5.3 5.4 5.4 5.5 5.9 5.9 6.0 6.1 6.3 6.2 6.6 6.6 6.5 6.4 6.4 6.2 6.4 6.7 6.4 6.3 6.7 6.5 6.0 6.0 6.7 6.9 6.8 6.2 5.8 6.3 6.2
4.1 4.0 4.4 4.6 4.8 4.8 4.7 4.8 4.7 4.7 4.9 5.1 5.2 5.3 5.4 5.6 5.8 5.9 5.9 5.8 6.0 6.3 6.4 6.6 6.6 6.3 6.4 6.3 6.0 6.4 6.2 6.4 6.6 6.2 5.4 6.1 6.7 6.6 6.9 6.6 5.7 6.0 6.4
3.8 3.7 4.3 4.6 4.7 4.7 4.6 4.6 4.8 4.8 5.0 5.2 5.3 5.4 5.5 5.6 5.8 5.9 6.0 5.9 5.8 6.1 6.4 6.5 6.8 6.4 6.4 6.3 6.0 6.0 6.3 6.4 5.8 5.9 5.4 5.6 6.0 6.3 6.3 6.6 6.0 5.8 5.9
3.8 3.9 4.3 4.5 4.6 4.6 4.5 4.5 4.7 4.9 4.9 5.0 5.2 5.2 5.4 5.6 5.9 6.0 5.9 5.7 5.8 6.0 6.4 6.6 6.6 6.5 6.3 6.4 6.0 5.9 6.3 6.9 6.4 5.5 5.1 5.5 5.6 5.7 6.0 6.3 6.3 5.8 6.0
4.0 3.9 4.1 4.2 4.1 4.3 4.3 4.4 4.5 4.7 4.8 5.1 5.2 5.2 5.3 5.4 5.6 5.7 5.7 5.7 5.9 6.2 6.3 6.3 6.4 6.6 6.5 6.3 6.0 6.1 6.3 6.6 6.8 6.3 5.7 5.5 5.8 6.0 5.8 6.1 6.3 6.0 5.5
3.3 3.5 3.9 3.9 4.0 4.3 4.3 4.5 4.6 4.8 5.0 5.1 5.2 5.3 5.4 5.5 5.6 5.7 5.9 6.2 6.2 6.2 6.1 6.1 5.9 6.3 6.4 6.4 6.2 6.2 6.6 6.8 6.9 6.6 5.5 5.7 6.0 6.2 5.7 5.6 5.9 5.7 5.6
3.0 2.9 3.3 3.6 4.3 4.6 4.5 4.7 4.7 4.8 4.8 5.0 5.0 5.1 5.2 5.3 5.5 5.7 5.8 6.0 6.3 6.3 6.1 6.2 6.0 6.1 6.1 6.1 6.1 6.3 6.8 7.4 6.7 5.7 5.8 5.8 6.4 6.2 5.8 5.3 5.2 5.4 5.7
3.1 2.6 2.1 2.7 3.4 3.7 4.3 4.5 4.7 4.7 4.7 4.8 5.0 5.2 5.3 5.6 5.5 5.8 5.8 5.7 6.0 6.2 6.2 6.1 6.1 6.1 5.9 5.5 5.7 5.9 6.1 7.0 6.7 6.0 5.3 5.5 6.0 6.3 5.9 5.5 5.2 5.3 5.4
3.5 2.8 2.2 2.2 2.5 2.8 3.4 4.3 4.7 4.9 5.0 5.0 5.2 5.6 5.7 4.9 5.7 5.5 5.7 5.8 6.4 6.4 6.4 6.3 6.2 5.9 5.6 5.5 5.5 5.5 5.7 5.6 5.6 5.5 5.1 5.8 5.4 5.7 5.9 5.4 5.2 5.1 5.2
3.2 2.8 2.8 2.4 2.4 2.6 3.6 3.8 3.9 4.5 4.9 4.9 4.8 5.0 4.9 4.7 5.3 5.7 5.9 6.5 6.5 6.5 6.2 6.2 6.2 6.1 5.9 5.1 5.1 5.6 4.9 5.0 5.6 5.4 5.4 5.6 6.1 5.8 5.7 5.3 4.9 4.9 5.1
3.4 3.5 3.2 3.3 2.9 2.7 3.2 2.9 3.4 3.9 4.3 4.5 4.7 4.5 4.4 4.8 4.5 4.3 5.1 5.5 5.9 6.4 5.7 5.8 5.6 5.2 5.1 3.9 4.0 4.6 4.9 4.7 5.2 5.0 5.6 6.9 6.5 5.9 5.8 5.1 5.1 4.9 4.9
4.1 3.5 3.4 3.5 3.1 3.3 3.3 3.1 3.6 3.6 3.2 2.7 4.4 4.3 3.5 3.1 3.5 4.0 4.0 4.4 4.8 5.4 4.9 4.7 4.3 3.8 3.7 4.0 3.8 3.5 3.8 4.4 5.1 4.9 4.9 6.2 6.6 6.2 6.1 5.6 5.4 5.1 4.8
4.2 4.1 3.9 3.6 3.2 2.7 2.7 2.7 2.9 2.7 3.0 3.3 3.3 4.6 4.3 2.6 2.5 3.1 2.9 3.4 3.9 4.2 3.7 2.2 2.5 2.8 2.7 3.2 3.2 3.2 3.3 3.7 4.0 5.3 4.8 5.8 6.4 6.1 6.1 5.9 5.9 5.7 5.2
4.5 3.6 3.3 3.2 2.9 3.6 3.2 2.5 1.8 2.3 3.7 3.0 2.3 3.3 4.4 3.7 3.0 2.4 2.0 2.4 3.4 3.3 3.5 2.6 2.2 1.8 1.8 2.5 2.7 3.4 3.5 3.3 4.0 4.8 6.0 5.0 6.8 6.1 5.9 6.0 5.9 5.9 5.8
4.1 3.6 3.6 3.1 3.5 3.5 2.8 2.7 2.2 2.1 3.0 2.2 2.4 3.2 3.2 3.4 3.5 3.5 2.3 2.6 3.5 4.3 3.9 2.7 2.4 2.5 1.8 2.0 1.3 2.0 2.9 3.2 3.9 4.5 5.6 5.6 5.8 7.0 6.6 6.2 5.8 5.9 5.9
3.4 3.6 3.6 5.2 3.2 3.4 2.9 2.9 3.0 3.1 2.5 2.3 2.6 2.7 2.8 3.0 4.5 3.9 3.2 3.0 3.8 3.1 2.7 2.0 1.7 1.8 1.6 1.1 1.3 1.8 2.3 2.7 3.4 4.0 4.6 5.1 5.4 5.6 5.9 6.1 6.1 6.3 6.1
3.6 3.3 3.7 3.9 3.2 2.8 2.5 2.7 3.2 4.1 3.3 3.3 2.2 2.2 2.8 3.3 4.5 4.1 3.9 3.3 3.2 3.1 2.0 1.7 1.6 1.2 1.6 1.5 1.7 1.8 1.8 2.6 3.2 4.2 4.1 4.5 4.6 4.4 4.4 5.2 5.9 6.2 6.4
3.0 2.9 2.4 1.7 2.4 2.2 2.0 2.7 3.2 2.9 2.8 3.7 3.4 3.4 3.9 3.4 4.9 3.6 3.8 3.5 3.1 3.2 2.8 2.0 1.7 1.3 2.0 2.4 4.3 4.1 3.5 3.1 2.6 2.5 3.8 5.5 4.8 4.7 4.6 4.2 4.9 5.9 6.0
2.9 2.3 1.5 1.0 1.0 1.7 1.8 2.4 2.8 3.6 3.2 3.3 2.9 3.6 3.7 3.4 3.9 3.4 3.2 3.6 3.8 3.5 3.7 3.4 2.5 2.5 2.6 2.4 3.6 3.0 3.1 3.0 2.7 3.2 3.6 4.6 4.0 4.1 4.6 4.9 4.0 4.6 4.9
2.6 1.7 0.8 0.5 0.6 1.6 1.8 1.9 2.7 3.9 3.4 4.0 3.4 3.0 3.8 4.0 3.9 3.5 3.4 3.5 4.1 3.6 3.9 3.9 3.8 3.6 3.6 3.2 3.2 2.5 3.6 3.0 3.4 3.0 3.2 3.3 3.7 3.7 4.2 4.9 4.9 4.7 4.0
2.6 1.4 0.7 1.5 1.0 1.9 2.7 2.7 3.3 3.6 3.6 3.7 3.7 3.7 4.4 5.0 4.8 4.5 4.6 3.7 3.5 3.7 3.4 3.9 4.2 3.8 3.7 3.0 3.4 3.5 4.1 4.4 3.0 2.1 2.8 2.5 3.2 2.8 3.1 4.0 4.5 4.6 4.2
2.3 2.0 2.5 2.4 2.0 2.6 3.2 4.0 4.4 3.9 4.4 3.8 4.1 3.6 3.3 4.4 4.3 4.9 4.7 4.3 4.0 3.6 3.8 3.8 4.0 3.8 3.6 3.5 3.5 3.9 4.0 4.1 4.6 3.8 2.3 1.9 2.6 3.9 3.5 3.1 3.6 3.7 3.9
2.9 2.2 2.3 2.5 2.8 3.3 3.2 3.8 3.6 4.4 4.0 3.8 3.5 3.5 3.4 3.1 4.2 4.6 4.5 4.2 4.0 3.5 3.5 3.8 3.8 3.7 3.6 3.7 3.6 3.4 3.6 3.4 3.4 4.1 4.3 2.9 2.5 3.5 3.2 2.8 3.8 3.8 3.3
2.9 2.5 2.7 2.2 2.6 3.6 3.7 4.1 4.4 4.7 4.5 4.0 3.3 3.0 3.2 3.5 3.4 3.5 4.1 3.9 3.6 3.7 4.0 3.8 3.9 3.9 3.7 3.3 3.4 3.7 4.3 4.2 4.1 4.0 4.0 4.1 3.5 2.9 2.4 2.0 2.4 2.5 2.3
Wind_Speed
7 11 15 15 17 18 16 16 17 18 18 18 17 16 15 16 17 18 17 16 16 16 14 11 10 11 13 14 14 15 16 17 20 19 21 20 19 18 20 20 17 16 18
12 13 17 17 18 19 18 17 18 18 18 17 17 16 15 15 14 14 14 13 12 11 12 11 10 10 11 14 14 15 16 17 19 20 19 18 16 15 18 19 17 16 17
13 16 18 19 19 19 19 18 18 18 17 16 16 15 15 14 13 13 11 11 9 9 7 10 11 11 10 14 13 13 14 16 18 19 16 14 11 13 17 18 18 16 16
14 16 17 20 19 19 18 18 18 18 18 17 16 15 14 14 13 13 12 10 8 7 8 7 9 11 11 12 14 13 13 13 15 16 15 13 16 17 16 17 17 17 17
12 17 19 19 19 19 18 17 17 17 17 16 15 14 14 14 12 11 9 9 8 6 6 6 8 10 11 13 14 13 12 15 15 15 12 14 14 16 16 16 17 16 15
14 17 20 20 20 19 18 17 17 17 17 16 15 14 13 11 10 10 9 8 7 6 6 7 6 8 9 12 12 12 11 11 10 8 8 14 15 16 17 15 16 15 16
13 18 19 20 20 19 18 18 17 16 16 15 14 13 12 11 10 8 7 6 6 6 5 7 6 6 7 11 11 10 9 9 7 7 13 13 16 19 18 17 15 15 15
15 16 18 21 20 19 19 17 17 16 15 13 12 12 11 9 8 7 7 6 7 6 6 7 8 8 6 7 8 8 9 8 5 4 12 14 16 18 18 17 17 15 14
14 13 14 16 19 18 17 17 16 16 15 13 12 11 10 10 9 8 7 7 7 7 6 6 6 9 9 7 7 6 6 6 5 2 16 16 17 17 17 18 18 16 15
10 9 11 13 15 15 15 17 16 16 15 14 12 10 10 10 9 8 7 7 7 7 7 6 7 7 8 9 9 7 5 4 3 4 12 15 20 19 17 17 17 16 16
7 8 9 10 13 16 16 15 15 15 15 14 12 10 8 5 7 6 6 7 7 7 7 7 7 8 9 9 9 9 8 5 3 6 12 17 22 21 19 19 18 17 16
10 9 10 10 11 13 12 14 15 12 11 10 9 8 7 7 8 8 9 8 8 9 9 8 8 7 8 6 6 8 6 6 7 9 11 18 22 20 20 19 19 19 17
14 9 9 9 11 10 8 10 10 11 11 8 8 11 12 10 9 6 10 9 10 11 8 8 8 7 7 6 7 8 7 6 7 10 12 20 20 20 21 20 20 19 19
11 12 10 9 9 10 8 8 8 6 10 11 12 9 9 6 4 2 3 5 6 9 7 8 7 7 5 6 6 8 8 7 9 9 15 14 21 21 20 21 20 20 20
13 12 13 10 7 6 6 8 5 3 4 5 11 12 8 6 3 2 3 5 11 11 9 7 8 8 7 8 9 6 3 6 9 10 10 17 22 22 21 21 21 21 21
12 9 9 9 7 9 5 4 4 4 8 6 8 10 11 9 7 5 5 6 7 10 11 11 8 6 5 6 4 6 6 6 8 10 11 13 22 21 22 21 22 23 23
10 8 10 9 9 8 6 5 5 7 9 7 9 12 15 15 10 7 5 4 9 12 11 9 8 6 3 2 5 5 5 9 7 10 15 13 16 18 22 22 24 24 24
10 11 8 8 8 8 7 5 3 4 6 6 10 13 9 11 13 8 4 5 10 9 7 3 3 3 4 4 4 5 5 8 8 9 13 14 16 14 18 23 24 25 25
12 11 8 8 9 7 6 5 3 2 2 5 10 10 12 15 11 7 4 5 7 5 4 3 3 3 3 4 4 4 4 5 4 7 9 12 16 15 15 18 26 26 26
8 8 7 6 10 7 4 4 2 2 2 4 4 2 3 2 5 4 4 4 5 3 3 3 5 4 4 4 2 3 3 5 3 4 6 12 13 13 15 15 16 22 28
10 9 7 8 5 8 2 1 1 0 0 2 2 5 5 6 7 4 2 3 4 4 5 7 4 5 4 4 0 2 2 4 5 7 6 7 5 12 15 15 14 14 16
11 8 8 9 7 6 3 2 2 2 1 2 3 8 10 7 6 4 3 4 3 2 3 4 5 3 3 5 3 3 3 4 3 7 5 5 8 8 7 12 13 16 14
10 10 9 8 7 7 4 3 2 2 1 2 2 2 3 4 6 4 1 3 5 2 4 3 4 6 4 4 4 4 2 3 2 2 3 5 7 4 4 7 12 14 16
7 8 7 7 7 5 5 3 3 2 2 2 0 2 4 9 8 7 4 3 3 3 4 4 4 4 4 4 2 5 2 3 3 3 2 3 3 4 5 4 6 9 6
11 9 7 7 6 4 6 3 2 2 1 2 3 5 5 6 9 7 6 4 4 4 4 4 4 4 3 3 3 3 6 5 2 2 2 4 2 2 2 3 2 4 6
9 8 7 7 6 4 3 3 4 5 4 3 4 4 3 3 3 5 6 4 4 4 3 4 3 4 4 4 4 4 4 3 3 3 2 3 3 2 4 4 4 4 9
Wind_Direction
164 154 145 139 137 136 133 121 114 111 110 110 110 107 105 108 112 117 120 123 124 127 129 129 125 127 123 126 124 125 124 125 123 122 121 118 120 124 118 116 115 112 115
136 142 134 131 135 141 132 123 123 123 122 120 117 113 111 112 116 116 120 122 126 128 134 135 129 130 131 129 127 129 129 130 128 125 120 118 124 130 125 123 119 117 114
133 138 135 136 138 136 134 133 128 125 124 123 120 118 117 119 122 118 114 118 127 128 137 147 149 146 145 136 133 130 132 131 126 124 120 117 123 140 123 127 127 126 126
133 131 136 140 140 138 135 133 133 133 133 133 130 126 122 120 126 127 124 124 123 121 134 154 169 156 156 147 137 139 143 133 128 126 129 126 120 128 133 132 134 124 124
130 132 138 139 140 139 138 138 137 135 135 135 133 129 128 131 132 131 128 126 121 124 133 142 161 160 170 156 144 152 154 148 154 142 144 131 131 137 138 140 137 134 137
138 135 136 137 141 142 140 139 139 140 142 144 142 139 136 136 137 140 138 136 135 137 156 150 157 163 169 152 154 166 155 152 160 175 161 152 147 150 148 148 149 139 131
142 140 138 139 141 142 142 143 145 148 150 149 145 144 143 147 147 150 147 152 156 149 153 151 162 161 172 157 162 170 165 160 165 193 170 156 161 155 155 158 151 148 146
147 142 143 143 143 144 146 150 148 149 147 150 151 150 148 150 159 168 163 171 170 158 149 149 160 160 174 172 168 168 179 172 168 144 158 161 174 165 161 159 155 157 156
143 137 141 146 146 146 149 150 151 152 153 157 161 162 158 159 165 168 173 176 184 181 171 158 162 163 175 185 174 183 190 181 126 254 164 170 180 172 165 162 163 163 166
139 139 143 146 144 146 153 160 158 159 161 164 169 170 169 170 175 187 190 197 201 195 187 176 173 172 184 190 178 188 201 169 155 157 166 176 178 176 174 173 171 172 173
142 150 153 145 151 157 159 162 165 168 169 169 171 175 182 191 192 196 200 214 218 227 215 200 191 178 185 204 204 198 191 177 225 195 192 190 183 180 182 182 179 179 182
166 174 171 163 168 164 163 169 168 173 177 179 169 179 198 206 211 211 218 224 226 225 220 216 206 191 192 212 221 220 222 195 194 224 230 208 188 187 187 186 186 185 187
177 174 179 172 170 166 166 165 170 171 181 190 197 195 201 210 239 229 216 232 224 226 228 219 211 195 204 203 224 238 234 235 233 201 227 207 196 197 196 193 193 191 193
180 184 178 182 171 168 159 169 180 184 192 177 217 217 187 200 227 206 196 197 233 235 208 230 208 174 162 207 227 232 251 242 242 241 222 217 199 206 206 202 202 200 200
182 185 184 176 169 160 158 163 156 146 240 272 179 204 208 231 216 195 171 180 218 244 203 194 186 190 190 196 192 185 190 249 252 230 235 215 215 207 211 210 211 210 209
183 182 163 164 149 155 156 133 152 198 240 243 218 204 225 233 232 181 179 188 201 204 197 195 201 198 208 199 241 212 218 256 273 243 237 233 224 214 218 213 216 216 214
178 166 165 159 158 149 140 152 178 203 212 233 229 228 228 237 228 193 186 206 214 212 210 203 217 211 230 208 237 247 252 258 238 246 235 231 224 239 223 218 220 219 217
154 166 161 167 144 140 152 157 185 215 219 224 252 252 255 247 236 206 190 213 222 217 195 196 214 221 201 192 213 225 234 245 240 241 230 223 221 226 227 224 225 224 221
166 150 163 139 130 136 136 127 164 325 306 251 238 236 247 239 236 195 234 240 229 211 192 201 231 216 231 211 231 229 232 242 210 245 233 218 219 222 217 226 227 229 228
137 125 106 100 126 114 119 124 126 309 57 171 196 219 168 285 239 180 219 242 194 201 198 192 210 207 214 221 248 262 245 247 262 247 247 240 225 219 224 227 236 233 229
116 115 124 123 123 127 102 137 131 247 52 224 217 252 259 226 208 216 245 241 209 191 210 213 208 216 219 199 357 312 301 270 247 243 234 243 225 224 220 226 226 232 230
133 118 116 131 151 143 140 182 163 131 257 266 208 214 223 224 223 215 263 283 258 236 236 212 197 207 219 176 144 83 316 328 294 234 227 220 224 222 216 223 225 234 232
138 134 139 159 162 162 167 116 95 70 347 350 301 315 1 345 349 37 357 315 292 230 258 233 213 193 189 205 207 140 169 232 337 344 252 224 222 205 213 224 225 231 228
131 134 135 146 160 160 172 144 124 142 187 220 96 6 42 73 62 43 17 333 317 294 250 245 217 209 174 177 213 243 179 167 185 325 321 290 199 201 224 235 225 238 218
138 138 134 141 139 155 143 147 138 110 78 75 46 59 52 36 37 20 12 344 312 287 281 260 247 221 199 190 176 147 222 233 193 132 277 307 298 253 284 268 243 220 142
130 132 137 137 145 168 176 174 132 112 77 68 53 61 44 20 358 7 2 357 333 303 265 276 246 232 234 207 188 183 163 165 198 157 150 275 268 332 43 26 56 92 139